sat.trackr.live / text

‹ back to catalog

STARLINK-2219

NORAD 48569 · 2021-041S

PAYLOAD ACTIVE UNKNOWN

§ Identity

Operator
Country
US
Launch date
2021-05-15
Launch site
AFETR
Launch vehicle
Mass (kg)
RCS (m²)

Purposes: comms

External: N2YO · Heavens-Above · Gunter

§ Orbital elements

Epoch: 2026-05-25T02:30:44.853984Z

Period
94.01 min
Inclination
53.1577°
Eccentricity
0.0001207
Mean motion
15.31698717 rev/d
Perigee alt
469.9 km
Apogee alt
471.6 km
Semi-major
6,848.9 km
B*
7.4062e-5
RAAN
131.3076°
Arg perigee
82.6725°
Mean anomaly
277.4414°
Rev number
27,698

§ Raw data

STARLINK-22191 48569U 21041S   26145.10468581  .00001934  00000+0  74062-4 0  99902 48569  53.1577 131.3076 0001207  82.6725 277.4414 15.31698717276982

JSON: /api/v1/satellites/48569 · /tle

For live sub-satellite position, see the globe view (requires WebGL).

§ Visibility from observer

Set your observer location to see the next 7 days of passes ≥ 10°. The values pass through the URL so the page stays shareable.

No JS? Fill the form by hand. The geolocation button needs JavaScript.